Regional Weather Roundup
Issued by NWS

Home | Current Version | Previous Version | Text Only | Print | Product List | Glossary On
Versions: 1 2 3 4 5 6 7 8 9 10 11 12 13 14 15 16 17 18 19 20 21 22 23 24 25 26 27 28 29 30 31 32 33 34 35 36 37 38 39 40 41 42 43 44 45 46 47 48 49 50
000
ASUS43 KOAX 251810
RWRNE

WEATHER ROUNDUP FOR NEBRASKA
NATIONAL WEATHER SERVICE OMAHA NE
1200 PM CST THU DEC 25 2014

NOTES: SATELLITE DATA IS BEING USED TO AUGMENT CLOUD COVER ABOVE
       12000 FEET.
       "FAIR" INDICATES FEW OR NO CLOUDS BELOW 12,000 FEET WITH NO
       SIGNIFICANT WEATHER AND/OR OBSTRUCTIONS TO VISIBILITY.

  * THESE STATIONS DO NOT REPORT WEATHER SUCH AS RAIN...SNOW OR FOG.

NEZ001>004-019>022-054>056-251900-
NEBRASKA PANHANDLE

CITY           SKY/WX    TMP DP  RH WIND       PRES   REMARKS
SCOTTSBLUFF    SNOW      30  28  92 NE10      29.58F VSB 1/2 WCI  21
6HR MIN TEMP:  30; 6HR MAX TEMP:  39; 6HR PCP:  0.12;

ALLIANCE       SNOW      29  27  92 N21       29.57S VSB 1/2 WCI  16
6HR MIN TEMP:  28; 6HR MAX TEMP:  33;

CHADRON        FOG       30  28  92 NE18      29.65F VSB 1/2 WCI  18
6HR MIN TEMP:  29; 6HR MAX TEMP:  31; 6HR PCP: TRACE;

KIMBALL        LGT SNOW  30  28  90 N12       29.52F WCI  21
SIDNEY         CLOUDY    32  26  78 N20G28    29.51F WCI  20
6HR MIN TEMP:  27; 6HR MAX TEMP:  36;

$$

NEZ057>060-069>072-079>082-251900-
SOUTHWEST NEBRASKA

CITY           SKY/WX    TMP DP  RH WIND       PRES   REMARKS
NORTH PLATTE   SUNNY     42  24  49 N12       29.47F
6HR MIN TEMP:  23; 6HR MAX TEMP:  42;

IMPERIAL       SUNNY     40  24  53 N18       29.45F WCI  31
6HR MIN TEMP:  23; 6HR MAX TEMP:  41;

LEXINGTON      SUNNY     37  25  62 E5        29.47F WCI  33
MCCOOK         SUNNY     36  22  56 VRB3      29.44F
6HR MIN TEMP:  22; 6HR MAX TEMP:  37;

OGALLALA       MOSUNNY   40  30  66 N14       29.49R WCI  33
$$

NEZ005>010-023>029-035>040-094-251900-
NORTH CENTRAL NEBRASKA

CITY           SKY/WX    TMP DP  RH WIND       PRES   REMARKS
VALENTINE      FOG       31  30  96 N13G24    29.63R VSB 1/2 WCI  21
6HR MIN TEMP:  29; 6HR MAX TEMP:  33;

AINSWORTH      CLOUDY    31  25  78 N17G23    29.59R WCI  19
BROKEN BOW     SUNNY     37  24  59 NE6       29.49F WCI  32
6HR MIN TEMP:  22; 6HR MAX TEMP:  38;

O`NEILL        SUNNY     32  28  86 N9        29.57F WCI  24
ORD            SUNNY     37  24  59 E6        29.50F WCI  32
6HR MIN TEMP:  19; 6HR MAX TEMP:  37;

THEDFORD       MOSUNNY   34  28  79 N16G24    29.55S WCI  23
$$

NEZ041-046>049-061>064-073>077-083>087-251900-
SOUTH CENTRAL NEBRASKA

CITY           SKY/WX    TMP DP  RH WIND       PRES   REMARKS
GRAND ISLAND   SUNNY     39  25  57 SE9       29.53F WCI  33
6HR MIN TEMP:  28; 6HR MAX TEMP:  39;

AURORA         SUNNY     41  27  58 S10       29.53F
HASTINGS       SUNNY     41  23  48 S12G20    29.51F
6HR MIN TEMP:  28; 6HR MAX TEMP:  41;

HEBRON         SUNNY     44  27  50 S16       29.54F
HOLDREGE       SUNNY     38  22  53 SE8       29.47F WCI  32
KEARNEY *      SUNNY     39  23  52 SE10      29.50F WCI  32
YORK           SUNNY     41  28  60 S14       29.54F
$$

NEZ011>018-030>034-042>045-251900-
NORTHEAST NEBRASKA

CITY           SKY/WX    TMP DP  RH WIND       PRES   REMARKS
NORFOLK        MOSUNNY   37  27  67 SE9       29.58F WCI  30
6HR MIN TEMP:  25; 6HR MAX TEMP:  37;

ALBION         SUNNY     37  27  65 SE5       29.55F WCI  34
BLAIR          SUNNY     42  31  65 S14       29.62F
COLUMBUS *     MOSUNNY   41  27  56 SE14      29.59F
FREMONT        SUNNY     42  32  66 SE13      29.61F
TEKAMAH        MOSUNNY   40  32  73 SE10      29.63F WCI  33
6HR MIN TEMP:  31; 6HR MAX TEMP:  41;

WAYNE          MOSUNNY   37  30  76 SE7       29.62F WCI  32
$$

NEZ050>053-065>068-078-088>093-251900-
SOUTHEAST NEBRASKA

CITY           SKY/WX    TMP DP  RH WIND       PRES   REMARKS
LINCOLN        SUNNY     45  30  55 S13       29.60F
6HR MIN TEMP:  31; 6HR MAX TEMP:  45;

OMAHA EPPLEY   MOSUNNY   42  29  59 S16       29.65F
6HR MIN TEMP:  31; 6HR MAX TEMP:  42;

BEATRICE       SUNNY     47  30  51 S21G26    29.58F
FALLS CITY     SUNNY     46  31  55 SE20      29.67F
6HR MIN TEMP:  32; 6HR MAX TEMP:  46;

NEBRASKA CITY  SUNNY     44  29  57 S16       29.64F
PLATTSMOUTH    SUNNY     42  32  68 SE12G20   29.64F
$$

NEZ044-045-051>053-067-251900-
OMAHA AREA

CITY           SKY/WX    TMP DP  RH WIND       PRES   REMARKS
OMAHA EPPLEY   MOSUNNY   42  29  59 S16       29.65F
6HR MIN TEMP:  31; 6HR MAX TEMP:  42;

BLAIR          SUNNY     42  31  65 S14       29.62F
FREMONT        SUNNY     42  32  66 SE13      29.61F
MILLARD        SUNNY     43  31  64 SE13      29.64F
OFFUTT AFB     SUNNY     41  32  69 SE13      29.64F
PLATTSMOUTH    SUNNY     42  32  68 SE12G20   29.64F
WAHOO          FAIR      41  31  66 SE13      29.61F
$$


USA.gov is the U.S. government's official web portal to all federal, state and local government web resources and services.